BLOCK DM-SL DEB, 45041

Orbit data source: Space-Track

BLOCK DM-SL DEB, 45041 is space debris in GEO originally from a launch on Tue, 24 Dec 2019 UTC launched from the Tyuratam Missile And Space Complex (TTMTR). Debris objects in space refer to the collection of defunct objects orbiting the Earth. Examples of debris include non-operational satellites, rocket bodies, and fragments generated from explosions, collisions, or faulty payload assembly.

Not visible in the next 10 days
BLOCK DM-SL DEB details
Identifier
45041, 2019-095C
Orbit
GEO
Last TLE update12 hours ago
Origin
Flag of CISVVKO VKS (CIS)
ManufacturerRKKE
MissionSpacecraft
Bus & MotorSOZ, Unknown motor
Mass56 kg wet, 56 kg dry
Launch date (UTC)
2019-12-24 (5 years ago)
Launch vehicleUnknown
Launch site
Tyuratam Missile And Space Complex (TTMTR)
Object type
Payload
Rocket body
Debris
Shape & HBRCyl, 1.1 m
Radar Cross Section0.660 m²

Expand to show TLE details & history

TLE from 12 hours ago
0 BLOCK DM-SL DEB
1 45041U 19095C   25018.49826032 -.00000053  00000-0  00000+0 0  9996
2 45041   4.0724  80.0658 0261723  21.7033 339.3508  1.03040173 19030
Epoch: 2025-01-18T11:57Z
Definitive object data (Epoch: 2025-01-18T11:57:29.691Z)
Latitude-0°
Longitude142.51998°
Altitude34,014.471 km
Speed3.18 km/s
True Right ascension05h 20m 09s
True Declination0° 00' 00"
Sunlit
Object was in daylight at TLE epoch
Visualization TLE readout
Latitude-0.57767°
Longitude-29.39046°
Altitude36,081.841 km
Speed3.025 km/s
Apparent Right ascension17h 27m 54s
Apparent Declination-5° 50' 04"
Sunlit
Object is in daylight
Visualization observer readout
Local Sidereal Time00:54:41
Azimuth279.703° WNW
Elevation-20.325°
Doppler factor1
Orbital elements
Apogee altitude36,112.746 km
Perigee altitude33,945.305 km
Semi-major axis41,407.163 km
Eccentricity0.0261723
Inclination4.0724°
RAAN80.0658°
Arg. of periapsis21.7033°
True anomaly338.25988°
Mean anomaly339.3508°
Eccentric anomaly338.80873°
Mean motion0.25759 °/min
BSTARUnknown
Orbital period1397.57 mins
Loading historical data...
45041 neighbors
Authenticating...
Loading maneuver chart data...
Loading historical data...
Loading historical data...
Loading historical data...
Loading historical data...
Loading historical data...
Loading historical data...
Loading historical data...

BLOCK DM-SL DEB Visibility forecast

Observer location: undefined°, undefined

BLOCK DM-SL DEB is not visible in the next 10 days
Span
Click to sort rows by Start time (UTC) header in descending order
Start Az.
Max El. time (UTC)
Max El. Az.
Max El.
End time (UTC)
End Az.
|